Location: Pompeys Pillar
(45.9913°N, 107.9528°W)
Time: 05:51:24
(UTC+00:00)

Tiros 1 - Pass Details

Date: 02 June 2022
Orbit: 629 x 663 km, 48.4° (Epoch: 30 June)

Event Time Altitude Azimuth Distance (km) Brightness Sun altitude
Rises 10:18:08 0° 289° (WNW) 2,924 10.3 -9.6°
Reaches altitude 10° 10:20:28 10° 286° (WNW) 2,018 9.4 -9.3°
Maximum altitude 10:25:02 61° 207° (SSW) 726 7.1 -8.7°
Drops below altitude 10° 10:29:38 10° 127° (SE) 2,030 9.8 -8.2°
Sets 10:32:00 0° 124° (SE) 2,943 10.7 -7.9°
